Regional Weather Roundup
Issued by NWS Charleston, WV

Home | Current Version | Previous Version | Graphics & Text | Print | Product List | Glossary On
Versions: 1 2 3 4 5 6 7 8 9 10 11 12 13 14 15 16 17 18 19 20 21 22 23 24 25 26 27 28 29 30 31 32 33 34 35 36 37 38 39 40 41 42 43 44 45 46 47 48 49 50
000
ASUS41 KRLX 300710
RWRRLX
West Virginia Regional Weather Roundup
National Weather Service Charleston WV
300 AM EDT THU JUL 30 2015

Note: "fair" indicates few or no clouds below 12,000 feet with no
significant weather and/or obstructions to visibility.

WVZ003-300800-
Northern Panhandle of West Virginia

CITY           SKY/WX    TMP DP  RH WIND       PRES   REMARKS
WHEELING       CLOUDY    77  71  82 W6        29.94F HAZE
$$

WVZ009-300800-
Northwest West Virginia

CITY           SKY/WX    TMP DP  RH WIND       PRES   REMARKS
PARKERSBURG    MOCLDY    76  72  87 SW3       29.97F
$$

WVZ006-300800-
Western West Virginia

CITY           SKY/WX    TMP DP  RH WIND       PRES   REMARKS
HUNTINGTON     MOCLDY    75  72  90 SW3       29.96F
$$

WVZ015-300800-
West Central West Virginia

CITY           SKY/WX    TMP DP  RH WIND       PRES   REMARKS
CHARLESTON     CLOUDY    74  71  91 CALM      29.96F FOG
$$

WVZ022-031-300800-
North Central West Virginia

CITY           SKY/WX    TMP DP  RH WIND       PRES   REMARKS
CLARKSBURG     PTCLDY    74  71  91 CALM      29.95F
MORGANTOWN     PTCLDY    76  70  82 S3        29.96F
$$

WVZ025-035-042-045-300800-
Southern West Virginia

CITY           SKY/WX    TMP DP  RH WIND       PRES   REMARKS
BECKLEY        MOCLDY    69  67  93 S5        30.07F
LOGAN          FOG       73  73 100 CALM      29.98F VSB 1
BLUEFIELD      PTCLDY    72  67  84 W5        30.10S
LEWISBURG      DRIZZLE   70  67  92 CALM      30.05F
$$

WVZ047-300800-
Northern Mountains of West Virginia

CITY           SKY/WX    TMP DP  RH WIND       PRES   REMARKS
ELKINS         MOCLDY    69  67  93 CALM      30.02F FOG
$$

WVZ052-300800-
Eastern Panhandle of West Virginia

CITY           SKY/WX    TMP DP  RH WIND       PRES   REMARKS
MARTINSBURG    MOCLDY    74  73  97 SW3       29.92F FOG
PETERSBURG     PTCLDY   N/A N/A N/A W3        29.96F HAZE
$$



USA.gov is the U.S. government's official web portal to all federal, state and local government web resources and services.